Location: Contre
(49.7477°N, 2.0963°E)
Time: 13:22:42
(UTC+00:00)

Meteor 2-12 Rocket - Pass Details

Date: 06 August 2024
Orbit: 936 x 956 km, 82.5° (Epoch: 14 September)

Event Time Altitude Azimuth Distance (km) Brightness Sun altitude
Rises 01:12:18 0° 349° (N) 3,610 8.5 -21.6°
Reaches altitude 10° 01:14:47 10° 349° (N) 2,663 7.6 -21.5°
Maximum altitude 01:20:53 86° 263° (W) 951 4.3 -21.1°
Enters shadow 01:23:34 36° 176° (S) 1,453 4.9 -21.0°
